When you browse on this site, cookies collect data to enhance your experience and personalize the content and advertising you see.
Visit our Privacy Policy to learn more. By continuing to use the site, you agree to this use of cookies and data.
  • In United Kingdom
  • List of Countries
  • For 7 days
  • Water Temperature
  • Satellite Maps
  • Weather Map
  • Weather Widgets
  • user-avatar
    Login

    Hourly Weather Mingora

    Today, 24 April, Wednesday

    Time Temperature Precipitation Wind Pressure Humidity
    00:00 +20°C° 0.3 mm 3 mps 676 mmHg 51%
    01:00 +20°C° 0.3 mm 3 mps 676 mmHg 51%
    02:00 +19°C° 0.3 mm 3 mps 676 mmHg 52%
    03:00 +19°C° 0.3 mm 3 mps 675 mmHg 52%
    04:00 +19°C° 0.3 mm 3 mps 675 mmHg 53%
    05:00 +18°C° 0 mm 2 mps 675 mmHg 47%
    06:00 +19°C° 0.3 mm 2 mps 676 mmHg 48%
    07:00 +21°C° 0.3 mm 2 mps 676 mmHg 48%
    08:00 +23°C° 0.3 mm 2 mps 677 mmHg 48%
    09:00 +25°C° 0.3 mm 2 mps 677 mmHg 44%
    10:00 +26°C° 0.3 mm 2 mps 677 mmHg 40%
    11:00 +28°C° 0.3 mm 2 mps 677 mmHg 36%
    12:00 +28°C° 0 mm 2 mps 677 mmHg 37%
    13:00 +29°C° 0 mm 3 mps 677 mmHg 38%
    14:00 +29°C° 0 mm 3 mps 677 mmHg 39%
    15:00 +29°C° 0.1 mm 2 mps 676 mmHg 40%
    16:00 +28°C° 0.1 mm 2 mps 676 mmHg 41%
    17:00 +28°C° 0.1 mm 1 mps 675 mmHg 43%
    18:00 +26°C° 1.4 mm 2 mps 675 mmHg 51%
    19:00 +24°C° 1.4 mm 2 mps 675 mmHg 60%
    20:00 +21°C° 1.4 mm 2 mps 674 mmHg 68%
    21:00 +20°C° 3 mm 3 mps 674 mmHg 73%
    22:00 +19°C° 3 mm 3 mps 675 mmHg 77%
    23:00 +19°C° 3 mm 3 mps 675 mmHg 81%

    Tomorrow, 25 April, Thursday

    Time Temperature Precipitation Wind Pressure Humidity
    00:00 +18°C° 3 mm 3 mps 674 mmHg 81%
    01:00 +18°C° 3 mm 3 mps 674 mmHg 81%
    02:00 +17°C° 3 mm 3 mps 674 mmHg 81%
    03:00 +17°C° 0.8 mm 3 mps 674 mmHg 79%
    04:00 +17°C° 0.8 mm 3 mps 674 mmHg 77%
    05:00 +17°C° 0.8 mm 3 mps 674 mmHg 75%
    06:00 +18°C° 0.3 mm 3 mps 675 mmHg 69%
    07:00 +20°C° 0.3 mm 3 mps 675 mmHg 63%
    08:00 +22°C° 0.3 mm 3 mps 676 mmHg 56%
    09:00 +25°C° 0 mm 2 mps 677 mmHg 49%
    10:00 +27°C° 0 mm 2 mps 677 mmHg 42%
    11:00 +28°C° 0 mm 2 mps 677 mmHg 35%
    12:00 +29°C° 0 mm 2 mps 677 mmHg 35%
    13:00 +29°C° 0 mm 3 mps 677 mmHg 35%
    14:00 +29°C° 0 mm 3 mps 677 mmHg 34%
    15:00 +29°C° 0 mm 3 mps 676 mmHg 35%
    16:00 +29°C° 0 mm 2 mps 676 mmHg 36%
    17:00 +28°C° 0 mm 1 mps 675 mmHg 37%
    18:00 +26°C° 0.3 mm 2 mps 675 mmHg 42%
    19:00 +24°C° 0.3 mm 2 mps 675 mmHg 46%
    20:00 +21°C° 0.3 mm 3 mps 675 mmHg 51%
    21:00 +20°C° 0.5 mm 3 mps 675 mmHg 53%
    22:00 +19°C° 0.5 mm 3 mps 675 mmHg 55%
    23:00 +18°C° 0.5 mm 4 mps 675 mmHg 57%

    Day after tomorrow, 26 April, Friday

    Time Temperature Precipitation Wind Pressure Humidity
    00:00 +18°C° 0.7 mm 4 mps 675 mmHg 58%
    01:00 +17°C° 0.7 mm 4 mps 675 mmHg 59%
    02:00 +17°C° 0.7 mm 4 mps 675 mmHg 60%
    03:00 +17°C° 0.5 mm 4 mps 674 mmHg 60%
    04:00 +15°C° 0.5 mm 4 mps 674 mmHg 60%
    05:00 +15°C° 0.5 mm 4 mps 674 mmHg 60%
    06:00 +18°C° 0.3 mm 3 mps 675 mmHg 56%
    07:00 +20°C° 0.3 mm 3 mps 676 mmHg 52%
    08:00 +22°C° 0.3 mm 3 mps 676 mmHg 48%
    09:00 +25°C° 0.1 mm 3 mps 677 mmHg 43%
    10:00 +26°C° 0.1 mm 2 mps 677 mmHg 38%
    11:00 +28°C° 0.1 mm 1 mps 678 mmHg 33%
    12:00 +29°C° 0 mm 1 mps 677 mmHg 32%
    13:00 +29°C° 0 mm 2 mps 677 mmHg 31%
    14:00 +30°C° 0 mm 2 mps 677 mmHg 29%
    15:00 +29°C° 0 mm 1 mps 677 mmHg 30%
    16:00 +29°C° 0 mm 1 mps 676 mmHg 31%
    17:00 +28°C° 0 mm 1 mps 676 mmHg 32%
    18:00 +26°C° 0.2 mm 1 mps 676 mmHg 38%
    19:00 +24°C° 0.2 mm 2 mps 676 mmHg 44%
    20:00 +21°C° 0.2 mm 3 mps 676 mmHg 49%
    21:00 +20°C° 0.1 mm 3 mps 676 mmHg 50%
    22:00 +19°C° 0.1 mm 3 mps 676 mmHg 51%
    23:00 +18°C° 0.1 mm 4 mps 676 mmHg 52%

    27 April, Saturday

    Time Temperature Precipitation Wind Pressure Humidity
    00:00 +18°C° 0.1 mm 4 mps 676 mmHg 51%
    01:00 +18°C° 0.1 mm 4 mps 676 mmHg 49%
    02:00 +17°C° 0.1 mm 4 mps 675 mmHg 48%
    03:00 +17°C° 0 mm 4 mps 675 mmHg 47%
    04:00 +17°C° 0 mm 4 mps 675 mmHg 46%
    05:00 +17°C° 0 mm 4 mps 675 mmHg 45%
    06:00 +19°C° 0 mm 4 mps 676 mmHg 43%
    07:00 +21°C° 0 mm 3 mps 676 mmHg 42%
    08:00 +24°C° 0 mm 3 mps 677 mmHg 41%
    09:00 +25°C° 0 mm 2 mps 677 mmHg 35%
    10:00 +27°C° 0 mm 2 mps 678 mmHg 30%
    11:00 +29°C° 0 mm 1 mps 678 mmHg 25%
    12:00 +29°C° 0 mm 1 mps 678 mmHg 24%
    13:00 +30°C° 0 mm 1 mps 677 mmHg 22%
    14:00 +30°C° 0 mm 1 mps 677 mmHg 21%
    15:00 +30°C° 0 mm 1 mps 676 mmHg 22%
    16:00 +29°C° 0 mm 1 mps 676 mmHg 24%
    17:00 +29°C° 0 mm 1 mps 675 mmHg 25%
    18:00 +27°C° 0 mm 1 mps 675 mmHg 27%
    19:00 +25°C° 0 mm 2 mps 675 mmHg 30%
    20:00 +23°C° 0 mm 2 mps 675 mmHg 32%
    21:00 +21°C° 0 mm 3 mps 675 mmHg 33%
    22:00 +20°C° 0 mm 3 mps 675 mmHg 33%
    23:00 +20°C° 0 mm 3 mps 675 mmHg 34%

    28 April, Sunday

    Time Temperature Precipitation Wind Pressure Humidity
    00:00 +19°C° 0 mm 3 mps 675 mmHg 34%
    01:00 +19°C° 0 mm 4 mps 674 mmHg 34%
    02:00 +18°C° 0 mm 4 mps 674 mmHg 35%
    03:00 +18°C° 0 mm 4 mps 674 mmHg 35%
    04:00 +17°C° 0 mm 4 mps 674 mmHg 35%
    05:00 +17°C° 0 mm 4 mps 673 mmHg 35%
    06:00 +19°C° 0 mm 4 mps 674 mmHg 35%
    07:00 +21°C° 0 mm 3 mps 675 mmHg 35%
    08:00 +24°C° 0 mm 3 mps 675 mmHg 36%
    09:00 +26°C° 0 mm 2 mps 676 mmHg 31%
    10:00 +27°C° 0 mm 2 mps 676 mmHg 26%
    11:00 +29°C° 0 mm 1 mps 676 mmHg 21%
    12:00 +29°C° 0 mm 1 mps 676 mmHg 21%
    13:00 +30°C° 0 mm 1 mps 676 mmHg 20%
    14:00 +30°C° 0 mm 1 mps 675 mmHg 20%
    15:00 +30°C° 0 mm 1 mps 675 mmHg 21%
    16:00 +30°C° 0 mm 1 mps 675 mmHg 22%
    17:00 +29°C° 0 mm 1 mps 674 mmHg 23%
    18:00 +27°C° 0 mm 2 mps 674 mmHg 25%
    19:00 +25°C° 0 mm 2 mps 674 mmHg 28%
    20:00 +21°C° 0 mm 3 mps 674 mmHg 30%
    21:00 +21°C° 0 mm 3 mps 674 mmHg 31%
    22:00 +20°C° 0 mm 3 mps 674 mmHg 31%
    23:00 +19°C° 0 mm 4 mps 675 mmHg 31%

    29 April, Monday

    Time Temperature Precipitation Wind Pressure Humidity
    00:00 +19°C° 0 mm 4 mps 674 mmHg 31%
    01:00 +18°C° 0 mm 4 mps 674 mmHg 31%
    02:00 +18°C° 0 mm 4 mps 674 mmHg 31%
    03:00 +17°C° 0 mm 4 mps 674 mmHg 30%
    04:00 +17°C° 0 mm 4 mps 674 mmHg 30%
    05:00 +17°C° 0 mm 4 mps 673 mmHg 30%
    06:00 +19°C° 0 mm 4 mps 674 mmHg 31%
    07:00 +21°C° 0 mm 3 mps 675 mmHg 32%
    08:00 +24°C° 0 mm 3 mps 675 mmHg 32%
    09:00 +26°C° 0 mm 3 mps 675 mmHg 28%
    10:00 +28°C° 0 mm 2 mps 676 mmHg 23%
    11:00 +30°C° 0 mm 2 mps 676 mmHg 18%
    12:00 +31°C° 0 mm 2 mps 676 mmHg 18%
    13:00 +31°C° 0 mm 2 mps 675 mmHg 18%
    14:00 +32°C° 0 mm 2 mps 675 mmHg 17%
    15:00 +31°C° 0 mm 1 mps 674 mmHg 19%
    16:00 +31°C° 0 mm 1 mps 674 mmHg 21%
    17:00 +30°C° 0 mm 1 mps 674 mmHg 23%
    18:00 +28°C° 0 mm 1 mps 674 mmHg 25%
    19:00 +26°C° 0 mm 2 mps 674 mmHg 26%
    20:00 +24°C° 0 mm 3 mps 674 mmHg 28%
    21:00 +24°C° 0 mm 3 mps 674 mmHg 28%
    22:00 +24°C° 0 mm 3 mps 674 mmHg 28%
    23:00 +22°C° 0 mm 4 mps 674 mmHg 29%
    Show more